User: anonymous   Login
Location: Unspecified
(0.0000°N, 0.0000°E)
Time: 18:40:37
(UTC+00:00)
Language:

EO-1 - Orbit

View from above orbital plane
View from above orbital plane
View from above satellite
View from above satellite

Ground track
Ground track

The orbit data is extracted from the following two-line orbital elements,

1 26619U 00075A   18292.47880762 -.00002229  00000-0 -41258-3 0  9990
2 26619  97.8079 302.3755 0009468   0.5712 359.5458 14.64458797955141
Epoch (UTC): 19 October 2018 11:29:28
Eccentricity: 0.0009468
inclination: 97.8079°
perigee height: 672 km
apogee height: 685 km
right ascension of ascending node: 302.3755°
argument of perigee: 0.5712°
revolutions per day: 14.64458797
mean anomaly at epoch: 359.5458°
orbit number at epoch: 95514

The dashed part of the orbit path shows where the satellite is in the earth's shadow,  

DLR